This demonstration page uses our WeatherBlox Daily Observations layout. Learn more.

Left ArrowRight Arrow

39.12711, -84.51439

Hourly Observations for October 21, 2020

Temp ( °F °C ) Dew Point ( °F °C ) Humidity (%) Winds ( mph kmh ) Pressure ( in mb ) Visibility ( mi km ) Precip ( " mm )
12:00 am 00:00 Cloudy with Mist and Fog 56 13.3 55 12.8 97 97 W 3 6 30.12 1020 2 3 0.00 0.00
12:18 am 00:18 Cloudy with Mist and Fog 57 13.9 56 13.3 96 96 WSW 6 9 30.12 1020 2 3 0.00 0.00
12:25 am 00:25 Cloudy with Mist and Fog 57 13.9 56 13.3 96 96 SW 5 7 30.12 1020 1 2 0.00 0.00
12:35 am 00:35 Cloudy with Mist and Fog 57 13.9 56 13.3 96 96 Calm 30.11 1020 1 1 0.00 0.00
12:48 am 00:48 Cloudy with Mist and Fog 55 13 55 13 100 100 Calm 30.11 1020 1 1 0.00 0.00
12:53 am 00:53 Cloudy with Fog 56 13.3 55 12.8 97 97 Calm 30.10 1019 1 1 0.00 0.00
1:23 am 01:23 Mostly Cloudy with Mist and Fog 56 13.3 55 12.8 97 97 SSW 8 13 30.10 1019 1 1 0.00 0.00
1:27 am 01:27 Mostly Cloudy with Mist and Fog 57 13.9 56 13.3 96 96 SW 8 13 30.10 1019 2 3 0.00 0.00
1:33 am 01:33 Partly Cloudy with Mist and Fog 57 13.9 56 13.3 96 96 SW 9 15 30.11 1020 5 8 0.00 0.00
1:53 am 01:53 Clear with Mist and Fog 57 13.9 56 13.3 96 96 WSW 6 9 30.11 1020 6 10 0.00 0.00
2:11 am 02:11 Clear with Mist and Fog 56 13.3 55 12.8 97 97 Calm 30.10 1019 2 3 0.00 0.00
2:21 am 02:21 Clear with Mist and Fog 56 13.3 55 12.8 97 97 SW 6 9 30.10 1019 3 5 0.00 0.00
5:09 am 05:09 Clear 56 13.3 55 12.8 97 97 SW 3 5 30.12 1020 7 11 0.00 0.00
6:03 am 06:03 Clear with Mist and Fog 54 12.2 54 12.2 100 100 Calm 30.14 1021 2 3 0.00 0.00
6:27 am 06:27 Clear with Mist and Fog 55 12.8 55 12.8 100 100 Calm 30.15 1021 3 5 0.00 0.00
7:43 am 07:43 Mostly Cloudy with Patchy Fog 56 13.3 55 12.8 97 97 Calm 30.16 1021 7 11 0.00 0.00
7:53 am 07:53 Mostly Cloudy with Patchy Fog 55 12.8 55 12.8 100 100 Calm 30.16 1021 7 11 0.00 0.00
8:53 am 08:53 Mostly Cloudy with Patchy Fog 59 15 58 14.4 96 96 Calm 30.17 1022 5 8 0.00 0.00
9:53 am 09:53 Mostly Cloudy 64 17.8 60 15.6 87 87 S 7 11 30.19 1022 10 16 0.00 0.00
10:53 am 10:53 Mostly Cloudy 69 20.6 62 16.7 78 78 S 9 15 30.18 1022 10 16 0.00 0.00
11:53 am 11:53 Cloudy 69 20.6 62 16.7 78 78 S 10 17 30.19 1022 10 16 0.00 0.00
12:53 pm 12:53 Cloudy 70 21.1 62 16.7 76 76 SW 8 13 30.20 1023 10 16 0.00 0.00
1:53 pm 13:53 Cloudy 72 22.2 63 17.2 73 73 SW 7 11 30.19 1022 10 16 0.00 0.00
2:53 pm 14:53 Cloudy 69 20.6 65 18.3 87 87 SW 3 6 30.19 1022 10 16 0.03 0.76
3:53 pm 15:53 Cloudy 68 20 64 17.8 87 87 N 6 9 30.18 1022 7 11 0.01 0.25
4:53 pm 16:53 Cloudy 70 21.1 65 18.3 84 84 ENE 5 7 30.17 1022 10 16 0.00 0.00
5:53 pm 17:53 Sunny 69 20.6 64 17.8 84 84 NE 6 9 30.17 1022 10 16 0.00 0.00
6:53 pm 18:53 Clear 65 18.3 64 17.8 97 97 N 3 6 30.18 1022 9 14 0.00 0.00
7:17 pm 19:17 Partly Cloudy with Mist and Fog 65 18.3 63 17.2 93 93 Calm 30.17 1022 1 2 0.00 0.00
7:21 pm 19:21 Partly Cloudy with Mist and Fog 64 17.8 63 17.2 96 96 Calm 30.17 1022 6 10 0.00 0.00
7:53 pm 19:53 Partly Cloudy with Mist and Fog 62 16.7 62 16.7 100 100 Calm 30.18 1022 6 10 0.00 0.00
8:53 pm 20:53 Mostly Cloudy with Fog 60 15.6 59 15 96 96 Calm 30.19 1022 0 0 0.00 0.00
9:53 pm 21:53 Mostly Cloudy with Fog 58 14.4 57 13.9 97 97 Calm 30.19 1022 0 0 0.00 0.00
10:53 pm 22:53 Mostly Cloudy with Fog 58 14.4 58 14.4 100 100 Calm 30.19 1022 N/A 0.00 0.00
11:53 pm 23:53 Mostly Cloudy with Fog 57 13.9 57 13.9 100 100 Calm 30.18 1022 0 0 0.00 0.00

Powered by AerisWeather